Back to catalog

STARLINK-5346

AliveCommunicationsVLEO
NORAD 56518·PAYLOAD·🇺🇸 United States

Launched May 14, 2023 from Cape Canaveral Space Force Station

Loading…

Next Passes (next 24 hours)

TLE

FreshSource: CelesTrak SupGP

Epoch: Sep 15, 2026, 03:08 UTC

1 56518C 23065R   26258.13104167 -.00031101  00000+0 -11267-2 0  2581
2 56518  42.9999 222.6151 0000925 268.5048  44.0793 15.27587638    17

Track STARLINK-5346 in real time with AllMySat

Download on the App Store